User: anonymous   Login
Location: Unspecified
(0.0000°N, 0.0000°E)
Time: 00:52:08
(UTC+00:00)
Language:

COSMOS 2251 DEB - Orbit

View from above orbital plane
View from above orbital plane
View from above satellite
View from above satellite

Ground track
Ground track

The orbit data is extracted from the following two-line orbital elements,

1 33915U 93036DU  21340.32539602  .00000304  00000-0  12125-3 0  9993
2 33915  74.0439 188.1117 0116914 278.3025 257.5712 14.29228133667582
Epoch (UTC): 06 December 2021 07:48:34
Eccentricity: 0.0116914
inclination: 74.0439°
perigee height: 710 km
apogee height: 878 km
right ascension of ascending node: 188.1117°
argument of perigee: 278.3025°
revolutions per day: 14.29228133
mean anomaly at epoch: 257.5712°
orbit number at epoch: 66758

The dashed part of the orbit path shows where the satellite is in the earth's shadow,  

DLR